This demonstration page uses our WeatherBlox Daily Observations layout. Learn more.

Left ArrowRight Arrow

Hourly Observations for April 19, 2016

Temp ( °F °C ) Dew Point ( °F °C ) Humidity (%) Winds ( mph kmh ) Pressure ( in mb ) Visibility ( mi km ) Precip ( " mm )
12:53 am 00:53 Clear 64 17.8 51 10.6 63 63 NNW 5 7 30.00 1016 10 16 0.00 0.00
1:53 am 01:53 Clear 62 16.7 51 10.6 67 67 undefined N/A 29.99 1016 10 16 0.00 0.00
2:53 am 02:53 Clear 62 16.7 50 10 65 65 NNW 5 7 29.98 1015 10 16 0.00 0.00
3:53 am 03:53 Clear 59 15 50 10 72 72 NNW 3 6 29.98 1015 10 16 0.00 0.00
4:53 am 04:53 Clear 59 15 49 9.4 69 69 N 5 7 29.97 1015 10 16 0.00 0.00
5:53 am 05:53 Clear 58 14.4 49 9.4 72 72 NW 5 7 29.96 1015 10 16 0.00 0.00
6:53 am 06:53 Sunny 56 13.3 49 9.4 77 77 N 3 6 29.96 1015 10 16 0.00 0.00
7:53 am 07:53 Sunny 61 16.1 52 11.1 72 72 Calm 29.96 1015 10 16 0.00 0.00
8:53 am 08:53 Sunny 68 20 50 10 53 53 N 3 6 29.96 1014 10 16 0.00 0.00
9:53 am 09:53 Sunny 72 22.2 50 10 46 46 Calm 29.95 1014 10 16 0.00 0.00
10:53 am 10:53 Sunny 76 24.4 50 10 40 40 NW 5 7 29.95 1014 10 16 0.00 0.00
11:53 am 11:53 Sunny 79 26.1 51 10.6 38 38 Calm 29.93 1013 10 16 0.00 0.00
12:53 pm 12:53 Sunny 83 28.3 50 10 32 32 SE 6 9 29.91 1013 10 16 0.00 0.00
1:53 pm 13:53 Sunny 85 29.4 50 10 30 30 VRB 3 6 29.89 1012 10 16 0.00 0.00
2:53 pm 14:53 Sunny 86 30 47 8.3 26 26 VRB 6 9 29.87 1012 10 16 0.00 0.00
3:53 pm 15:53 Sunny 87 30.6 46 7.8 24 24 SSE 8 13 29.85 1011 10 16 0.00 0.00
4:53 pm 16:53 Sunny 87 30.6 45 7.2 23 23 S 9 15 29.83 1010 10 16 0.00 0.00
5:53 pm 17:53 Sunny 85 29.4 44 6.7 24 24 S 10 17 29.82 1010 10 16 0.00 0.00
6:53 pm 18:53 Sunny 82 27.8 46 7.8 28 28 S 7 11 29.81 1010 10 16 0.00 0.00
7:53 pm 19:53 Clear 76 24.4 47 8.3 36 36 Calm 29.81 1010 10 16 0.00 0.00
8:53 pm 20:53 Clear 69 20.6 56 13.3 63 63 undefined N/A 29.82 1010 10 16 0.00 0.00
9:53 pm 21:53 Clear 71 21.7 52 11.1 51 51 Calm 29.83 1010 10 16 0.00 0.00
10:53 pm 22:53 Clear 69 20.6 52 11.1 55 55 N 3 6 29.83 1010 10 16 0.00 0.00
11:53 pm 23:53 Clear 66 18.9 52 11.1 61 61 Calm 29.83 1010 10 16 0.00 0.00

Powered by AerisWeather